Henry Post Army Air Field (Fort Sill)
KFSI : rendu visible

Aérodrome :











RETROUVEZ-NOUS SUR...

 
LOGIN :

S'inscrire | Disclaimer

   EN    FR    IT 

 









Légende :    VFR   VFR Marginal   IFR   IFR Intensif   IFR Très Intensif
Visi : 
Plafond : 
>= 8 km
>= 3000ft
5 à 8 km
1000 à 3000 ft
1500m à 5 km
500 à 1000 ft
800 à 1500m
200 à 500 ft
< 800m
< 200 ft
Symboles :   Orages  Brouillard  Fortes neiges  Fortes précipitations  Vent > 20 kt






- Altitude de l'aérodrome : 1189 ft


KFSI - Henry Post Army Air Field (Fort Sill)

DERNIER METAR :
  • 042356Z AUTO 04007KT 10SM FEW040 09/04 A3001 RMK AO2 SLP165 T00930043 10104 20061 55008 $

METARs EXPIRÉS :
  • 042256Z AUTO 04007KT 10SM FEW045 BKN130 10/04 A3001 RMK AO2 SLP164 T00950041 $
  • 042156Z AUTO 04007KT 10SM FEW055 SCT140 10/04 A3002 RMK AO2 SLP168 T00990038 $

Prévision TAF périmée.



MET'MAP, la Météo Aéronautique d'un coup d'oeil ! - Copyright ORBIFLY Décembre 2007 - Disclaimer

ORBIFLY MET'MAP TEAM :

Programmation & Développement : Alexandra Zaïnal
Sur une idée originale de : Baudouin d'Aumeries
Assistance à la programmation : Marc-Olivier Méhu
Soutien technique & logistique : Manuel Goepfert

Contact : metmap@orbifly.com




SOURCES & CREDITS :

   NOAA       Earth
Advisory